SCP
1 0 0 1 0 0 0 0 0 0 0 0 0 0 0 0 0 0 0 0 0 0 0 0 0 0 0 0 0 0 0 0 0 0 0 0 0 0 0 0 0 -0 -0
1 1 1 1 1 1 0 0 0 0 0 0 0 0 0 0 0 0 0 0 0 0 0 0 0 0 0 0 0 0 0 0 0 0 0 0 0 0 0 0 0 0 0
1 1 1 1 1 1 1 0 0 0 0 0 0 0 0 0 0 0 0 0 0 0 0 0 0 0 0 0 0 0 0 0 0 0 0 0 0 0 0 0 0 0 0
1 1 1 1 1 1 1 0 0 0 0 0 0 0 0 0 0 0 0 0 0 0 0 0 0 0 0 0 0 0 0 0 0 0 0 0 0 0 0 0 0 0 0
1 1 1 1 1 1 0 0 0 0 0 0 0 0 0 0 0 0 0 0 0 0 0 0 0 0 0 0 0 0 0 0 0 0 0 0 0 0 0 0 0 0 -0
1 1 1 1 1 1 0 0 0 0 0 0 0 0 0 0 0 0 0 0 0 0 0 0 0 0 0 0 0 0 0 0 0 0 0 -0 0 0 0 0 0 0 -0
1 1 1 1 1 0 0 0 0 0 0 0 0 0 0 0 0 0 0 0 0 0 0 0 0 0 0 0 0 0 0 0 0 0 0 0 0 0 0 0 0 0 0
1 1 1 1 0 0 0 0 0 0 0 0 0 0 0 0 0 0 0 0 0 0 0 0 0 0 0 1 0 0 0 0 0 -0 0 0 0 -0 -0 0 -0 -0 -0
1 1 1 0 0 0 0 0 0 0 0 0 0 0 0 0 0 0 0 0 0 0 0 0 0 0 0 0 0 0 0 0 0 -0 0 0 -0 -0 -0 -0 -0 -0 -0
0 1 1 0 0 0 0 0 0 0 0 0 0 -0 0 0 0 0 0 0 0 0 0 0 0 0 0 0 0 0 0 0 0 -0 -0 -0 -0 -0 -0 -0 -0 0 -0
0 0 0 0 0 0 0 0 0 0 0 0 0 0 -0 -0 0 0 0 0 0 0 0 0 0 0 0 0 0 0 0 0 -0 -0 -0 -0 -0 -0 -0 -0 -0 -0 0
0 0 0 0 0 0 0 0 -0 -0 0 0 -0 -0 -0 -0 0 -0 0 0 0 0 0 0 0 0 0 0 0 0 0 0 0 0 -0 -0 -0 -0 -0 -0 -0 0 0
0 0 0 0 0 0 -0 -0 -0 0 0 -0 -0 -0 -0 -0 0 0 0 0 0 0 0 0 0 0 0 0 0 0 0 0 0 -0 -0 -0 -0 -0 -0 -0 0 0 0
0 0 0 0 0 0 -0 0 0 0 0 0 0 -0 -0 -0 0 0 0 0 0 0 0 0 0 0 0 0 0 0 0 -0 0 -0 0 -0 -0 -0 -0 -0 -0 -0 0
0 0 -0 0 0 0 0 0 0 -0 0 0 -0 -0 0 -0 0 0 0 0 0 0 0 0 0 0 0 0 0 0 0 -0 -0 -0 -0 -0 -0 -0 -0 0 0 0 0
0 -0 -0 -0 -0 0 0 0 0 -0 -0 -0 -0 -0 0 0 -0 0 0 0 0 0 0 0 0 0 0 0 0 0 0 -0 -0 -0 0 0 0 -0 -0 0 0 0 0
-0 -0 0 0 0 0 0 0 0 0 -0 -0 0 -0 0 0 0 -0 -0 0 0 0 0 0 0 0 0 0 0 0 0 0 0 0 0 0 -0 -0 0 0 0 0 -0
-0 -0 0 0 0 -0 -0 -0 0 0 -0 0 -0 0 0 0 0 0 0 0 0 0 0 0 0 0 0 0 0 0 0 0 0 0 0 -0 -0 0 -0 0 0 0 0
-0 -0 0 0 -0 -0 -0 0 0 0 -0 -0 0 -0 0 -0 0 0 0 0 0 0 0 0 0 0 0 0 0 0 0 0 0 -0 -0 0 -0 -0 0 0 0 0 -0
-0 -0 -0 -0 -0 0 0 0 0 -0 0 0 0 0 -0 0 0 0 0 0 0 0 0 0 0 0 0 0 0 0 0 0 0 0 0 0 0 0 0 0 0 -0 -0
0 -0 -0 -0 -0 -0 0 -0 -0 0 0 0 0 0 0 0 -0 -0 -0 -0 0 0 0 0 0 0 0 0 0 0 0 0 0 0 0 0 0 0 0 -0 -0 -0 -0
-0 -0 0 0 -0 -0 0 0 0 0 0 0 0 0 0 0 0 0 0 0 0 0 0 0 0 0 0 0 0 0 0 0 0 0 0 0 0 0 0 0 -0 -0 0
0 -0 0 0 0 0 0 0 -0 -0 0 0 0 0 0 0 0 0 0 0 0 0 0 0 0 0 0 0 0 0 0 0 0 -0 0 0 0 -0 0 0 0 0 0
0 -0 0 0 0 0 0 -0 -0 0 0 0 0 0 0 0 0 0 0 0 0 0 0 0 0 0 0 0 0 0 -0 0 0 -0 0 -0 0 0 -0 0 0 0 0
0 -0 0 0 0 0 -0 0 0 -0 -0 -0 0 0 0 0 0 0 0 0 0 0 0 0 0 0 0 -0 0 0 0 -0 -0 -0 0 0 0 0 0 0 0 0 0
0 -0 0 0 0 0 0 0 0 0 -0 0 0 0 -0 0 0 0 0 0 0 -0 -0 -0 0 0 0 0 0 0 -0 -0 -0 -0 -0 -0 0 0 0 0 0 0 0
Wind_Speed_500mb
45 37 42 36 32 32 29 23 26 27 28 28 24 22 33 32 26 28 32 35 36 48 45 32 31 32 32 40 40 41 39 39 43 43 37 33 32 39 41 41 40 45 33
36 38 38 31 33 35 31 37 39 30 35 35 32 27 25 36 27 34 37 26 29 39 39 33 32 31 35 41 42 44 43 44 47 44 39 35 31 37 39 45 46 37 35
38 39 41 45 43 43 45 40 43 47 51 45 38 33 30 30 29 39 34 29 31 32 31 30 31 32 34 42 44 45 47 45 49 45 40 29 34 35 44 49 43 41 38
42 43 40 42 41 43 46 44 40 39 40 35 38 35 28 32 35 38 43 41 26 25 25 27 25 31 32 41 46 47 48 50 46 41 44 35 36 39 45 47 42 42 34
43 42 38 30 35 42 44 45 46 39 34 34 31 42 41 38 34 45 37 43 37 32 29 23 22 32 35 40 46 48 50 45 46 45 43 42 43 44 49 44 43 37 25
38 39 32 28 37 43 43 42 42 32 29 28 30 33 35 34 37 36 38 40 47 38 28 27 28 32 37 39 45 48 55 49 48 45 43 45 42 42 45 47 42 32 33
36 33 33 38 44 45 40 39 32 29 30 30 30 29 26 27 34 35 34 30 32 31 42 34 27 29 38 39 44 46 55 53 51 46 47 43 44 47 49 52 41 41 37
41 43 40 39 41 43 40 34 28 28 29 32 27 20 11 23 33 38 34 36 35 31 37 35 35 25 34 42 47 47 54 57 53 49 47 45 50 54 55 47 41 40 35
42 40 36 32 28 28 28 25 25 30 29 28 28 18 10 13 27 33 37 34 33 40 32 39 32 35 34 44 49 49 54 55 53 50 50 48 53 57 48 43 45 45 36
38 37 35 29 26 26 24 22 21 24 24 26 28 33 23 8 12 14 34 35 38 41 40 25 38 36 40 42 50 57 58 55 53 51 54 49 61 59 53 53 50 42 43
27 30 32 24 22 18 20 16 19 20 25 27 31 26 37 20 18 14 21 35 36 31 31 24 26 34 45 52 58 61 61 68 60 52 54 61 70 55 52 54 44 45 32
26 24 24 18 12 12 16 17 15 22 23 24 24 23 32 30 22 37 18 29 31 26 26 25 30 33 38 46 47 55 59 59 53 59 59 72 65 61 58 55 43 37 20
15 13 14 9 7 11 12 15 20 18 19 18 17 25 30 28 18 19 30 27 34 28 23 28 27 25 23 36 44 48 54 53 65 72 80 75 63 64 54 55 40 30 29
8 8 9 5 6 7 9 7 11 11 9 10 12 17 21 24 19 16 18 33 36 31 33 26 27 27 23 37 36 36 48 69 68 87 82 71 74 67 64 48 32 29 26
9 9 7 7 13 9 8 8 7 4 7 11 14 17 17 20 19 19 24 32 44 39 31 38 33 23 32 37 39 26 40 58 80 86 81 73 69 61 49 43 37 31 27
16 6 5 15 15 8 5 6 6 5 5 11 16 16 17 14 17 16 10 31 38 42 31 35 39 43 38 38 44 24 48 90 82 74 60 72 55 36 42 38 31 26 21
10 11 11 17 11 9 9 4 9 8 11 16 13 11 12 8 10 16 23 42 39 46 52 41 44 38 37 40 34 57 81 65 57 65 73 59 40 45 40 33 28 25 20
14 12 17 14 9 3 6 8 11 10 9 7 8 4 11 15 19 14 32 34 38 40 54 57 43 42 39 38 51 78 65 73 77 73 59 49 52 44 39 32 28 20 21
22 15 13 8 10 11 11 11 14 14 12 11 5 6 11 24 29 19 19 29 38 44 51 58 53 42 50 60 77 79 84 80 69 62 56 51 47 44 39 31 23 19 19
23 20 16 12 12 12 8 7 7 9 13 14 13 8 17 22 19 12 11 25 40 50 59 66 60 61 79 82 86 84 81 76 71 59 55 50 45 34 29 24 22 20 16
26 26 23 17 16 14 10 7 8 19 16 13 7 12 19 11 10 17 10 23 42 56 67 69 66 79 92 87 83 78 76 67 57 52 50 41 34 32 29 26 23 19 17
33 25 21 20 17 13 13 12 19 19 13 13 10 13 15 7 15 13 17 19 36 63 73 73 93 93 94 91 79 74 65 60 55 44 44 39 31 27 26 25 23 18 14
27 23 19 18 14 9 14 24 20 13 12 12 14 18 17 18 18 20 17 33 43 52 62 82 98 99 98 85 70 61 57 56 54 50 43 39 33 28 26 23 19 18 16
17 19 26 18 12 14 21 27 21 15 14 16 15 15 15 22 26 26 35 50 60 67 71 83 81 90 87 65 53 50 50 44 45 48 41 34 30 24 22 21 20 18 15
21 21 18 17 21 28 29 25 22 18 19 21 22 23 17 27 27 31 44 55 67 68 60 65 77 70 62 51 45 59 53 50 52 43 34 19 26 20 17 17 21 21 20
21 24 25 25 23 28 31 23 18 15 21 19 22 25 24 25 29 32 47 57 58 61 66 68 64 60 54 52 57 49 48 47 43 34 33 22 15 18 11 17 21 22 23
Wind_Direction_500mb
241 247 246 249 255 254 247 259 268 263 263 272 244 246 254 260 257 256 247 249 248 223 232 241 249 246 229 213 205 196 204 209 207 207 205 206 221 212 205 197 190 179 177
240 251 249 248 250 257 257 270 258 244 257 269 248 237 244 242 249 246 248 234 220 216 234 245 241 244 223 212 205 197 203 201 206 209 206 213 222 208 207 192 181 180 170
239 252 245 239 246 253 254 258 257 256 257 264 242 240 240 235 252 236 245 232 228 227 238 246 247 231 219 210 205 201 198 208 207 205 210 218 204 198 183 179 177 168 167
247 258 257 248 244 255 264 262 264 268 262 247 239 229 236 237 238 242 242 233 226 232 242 240 236 214 223 218 204 202 199 202 207 212 209 207 198 188 181 180 177 163 179
254 262 265 257 252 255 262 266 272 267 259 248 235 232 237 240 247 239 235 228 228 236 224 237 226 216 215 215 207 202 199 202 203 201 203 196 193 188 186 179 165 172 167
255 259 271 264 266 263 265 266 270 260 252 242 230 232 237 240 244 232 227 234 223 226 226 239 228 216 205 210 208 205 198 203 200 196 197 193 192 191 191 174 167 160 157
250 257 252 261 267 269 275 272 262 251 238 225 228 231 243 240 227 217 212 207 203 216 226 234 227 214 205 203 208 204 198 196 195 193 190 193 192 187 181 165 166 164 161
244 257 261 270 270 272 275 264 255 240 231 223 218 239 256 236 222 211 208 206 215 219 217 234 235 221 209 202 201 201 196 195 196 193 193 191 191 183 173 167 165 170 152
249 260 273 273 272 272 267 258 242 235 225 221 231 215 193 223 213 217 217 214 216 229 221 226 229 229 219 204 197 197 196 196 197 195 191 192 192 178 162 160 166 164 156
252 264 285 282 277 272 256 234 226 224 222 226 229 225 207 162 185 204 218 224 228 233 227 225 218 222 210 202 199 196 196 197 196 190 186 189 180 171 160 164 163 160 153
276 284 283 273 267 252 246 228 231 228 235 240 234 231 205 212 230 211 205 210 209 205 206 212 216 211 204 196 199 197 196 190 194 194 181 181 166 160 163 159 153 153 169
276 271 254 255 252 252 244 249 245 240 238 235 221 208 209 223 238 219 240 207 201 184 190 198 203 194 198 196 193 192 195 190 190 177 172 165 167 167 159 156 153 159 195
270 270 231 232 270 250 235 239 238 224 219 205 210 205 212 225 235 232 224 196 178 171 169 188 200 184 173 162 171 184 195 194 185 175 167 167 164 154 156 162 158 157 187
267 213 192 194 196 187 174 178 175 169 196 198 212 206 226 219 226 222 196 179 166 160 140 149 163 154 166 165 163 169 170 172 177 172 168 157 152 160 165 161 156 168 174
155 157 161 145 154 132 112 112 118 140 205 209 213 210 201 196 213 204 184 188 178 159 146 148 145 162 161 159 149 139 167 188 183 167 166 162 156 162 158 150 166 162 163
140 124 151 154 137 124 118 113 137 152 170 165 177 183 186 191 189 187 208 190 199 190 148 154 143 156 158 163 166 179 168 162 158 158 153 153 155 158 152 164 156 155 164
118 117 145 154 158 158 145 159 165 158 158 157 157 170 154 147 169 203 211 175 182 190 169 150 150 154 159 166 159 168 167 158 168 157 155 157 167 156 160 158 158 163 176
141 115 124 132 115 128 157 153 146 173 167 190 202 213 202 209 146 143 162 171 174 181 168 154 151 153 164 168 163 165 154 140 145 149 153 159 153 159 165 164 166 186 197
152 147 132 103 118 94 137 143 137 141 137 115 125 139 143 146 152 155 157 186 186 184 177 159 148 154 167 174 154 146 144 141 146 145 150 151 158 167 170 174 187 196 203
163 163 151 144 114 116 150 158 135 134 137 145 109 138 138 145 168 167 132 177 189 178 171 159 153 156 155 153 153 145 145 144 143 150 152 162 169 177 176 183 194 204 216
154 167 172 173 178 191 192 184 137 131 141 159 154 133 152 167 205 210 224 163 179 174 170 162 157 149 152 152 145 148 144 146 148 157 162 163 166 165 178 193 204 216 230
166 189 174 191 211 190 205 187 135 137 145 143 144 149 149 125 138 139 149 166 179 177 167 162 154 142 151 154 151 155 153 154 146 166 165 165 172 184 196 207 215 222 222
189 191 200 205 173 163 141 133 136 139 154 140 131 141 138 133 129 130 144 169 164 169 171 167 154 159 159 159 160 161 165 166 165 166 172 172 180 198 207 213 218 217 216
168 174 180 170 155 155 133 139 134 128 136 137 133 121 132 134 137 142 153 153 156 160 167 168 168 164 162 161 165 155 160 164 162 161 174 174 181 197 211 217 216 222 236
161 152 159 144 147 126 124 128 128 137 138 138 139 143 135 137 141 150 156 151 148 153 161 160 158 158 162 160 157 156 158 160 162 166 173 200 190 195 220 221 218 228 243
169 162 158 151 146 133 131 130 126 130 142 144 156 155 150 138 155 155 162 157 158 163 164 158 151 153 158 158 160 162 160 164 162 167 188 201 199 206 224 226 221 230 247
Wind_Speed_850mb
45 37 42 36 32 32 29 23 26 27 28 28 24 22 33 32 26 28 32 35 36 48 45 32 31 32 32 40 40 41 39 39 43 43 37 33 32 39 41 41 40 45 33
36 38 38 31 33 35 31 37 39 30 35 35 32 27 25 36 27 34 37 26 29 39 39 33 32 31 35 41 42 44 43 44 47 44 39 35 31 37 39 45 46 37 35
38 39 41 45 43 43 45 40 43 47 51 45 38 33 30 30 29 39 34 29 31 32 31 30 31 32 34 42 44 45 47 45 49 45 40 29 34 35 44 49 43 41 38
42 43 40 42 41 43 46 44 40 39 40 35 38 35 28 32 35 38 43 41 26 25 25 27 25 31 32 41 46 47 48 50 46 41 44 35 36 39 45 47 42 42 34
43 42 38 30 35 42 44 45 46 39 34 34 31 42 41 38 34 45 37 43 37 32 29 23 22 32 35 40 46 48 50 45 46 45 43 42 43 44 49 44 43 37 25
38 39 32 28 37 43 43 42 42 32 29 28 30 33 35 34 37 36 38 40 47 38 28 27 28 32 37 39 45 48 55 49 48 45 43 45 42 42 45 47 42 32 33
36 33 33 38 44 45 40 39 32 29 30 30 30 29 26 27 34 35 34 30 32 31 42 34 27 29 38 39 44 46 55 53 51 46 47 43 44 47 49 52 41 41 37
41 43 40 39 41 43 40 34 28 28 29 32 27 20 11 23 33 38 34 36 35 31 37 35 35 25 34 42 47 47 54 57 53 49 47 45 50 54 55 47 41 40 35
42 40 36 32 28 28 28 25 25 30 29 28 28 18 10 13 27 33 37 34 33 40 32 39 32 35 34 44 49 49 54 55 53 50 50 48 53 57 48 43 45 45 36
38 37 35 29 26 26 24 22 21 24 24 26 28 33 23 8 12 14 34 35 38 41 40 25 38 36 40 42 50 57 58 55 53 51 54 49 61 59 53 53 50 42 43
27 30 32 24 22 18 20 16 19 20 25 27 31 26 37 20 18 14 21 35 36 31 31 24 26 34 45 52 58 61 61 68 60 52 54 61 70 55 52 54 44 45 32
26 24 24 18 12 12 16 17 15 22 23 24 24 23 32 30 22 37 18 29 31 26 26 25 30 33 38 46 47 55 59 59 53 59 59 72 65 61 58 55 43 37 20
15 13 14 9 7 11 12 15 20 18 19 18 17 25 30 28 18 19 30 27 34 28 23 28 27 25 23 36 44 48 54 53 65 72 80 75 63 64 54 55 40 30 29
8 8 9 5 6 7 9 7 11 11 9 10 12 17 21 24 19 16 18 33 36 31 33 26 27 27 23 37 36 36 48 69 68 87 82 71 74 67 64 48 32 29 26
9 9 7 7 13 9 8 8 7 4 7 11 14 17 17 20 19 19 24 32 44 39 31 38 33 23 32 37 39 26 40 58 80 86 81 73 69 61 49 43 37 31 27
16 6 5 15 15 8 5 6 6 5 5 11 16 16 17 14 17 16 10 31 38 42 31 35 39 43 38 38 44 24 48 90 82 74 60 72 55 36 42 38 31 26 21
10 11 11 17 11 9 9 4 9 8 11 16 13 11 12 8 10 16 23 42 39 46 52 41 44 38 37 40 34 57 81 65 57 65 73 59 40 45 40 33 28 25 20
14 12 17 14 9 3 6 8 11 10 9 7 8 4 11 15 19 14 32 34 38 40 54 57 43 42 39 38 51 78 65 73 77 73 59 49 52 44 39 32 28 20 21
22 15 13 8 10 11 11 11 14 14 12 11 5 6 11 24 29 19 19 29 38 44 51 58 53 42 50 60 77 79 84 80 69 62 56 51 47 44 39 31 23 19 19
23 20 16 12 12 12 8 7 7 9 13 14 13 8 17 22 19 12 11 25 40 50 59 66 60 61 79 82 86 84 81 76 71 59 55 50 45 34 29 24 22 20 16
26 26 23 17 16 14 10 7 8 19 16 13 7 12 19 11 10 17 10 23 42 56 67 69 66 79 92 87 83 78 76 67 57 52 50 41 34 32 29 26 23 19 17
33 25 21 20 17 13 13 12 19 19 13 13 10 13 15 7 15 13 17 19 36 63 73 73 93 93 94 91 79 74 65 60 55 44 44 39 31 27 26 25 23 18 14
27 23 19 18 14 9 14 24 20 13 12 12 14 18 17 18 18 20 17 33 43 52 62 82 98 99 98 85 70 61 57 56 54 50 43 39 33 28 26 23 19 18 16
17 19 26 18 12 14 21 27 21 15 14 16 15 15 15 22 26 26 35 50 60 67 71 83 81 90 87 65 53 50 50 44 45 48 41 34 30 24 22 21 20 18 15
21 21 18 17 21 28 29 25 22 18 19 21 22 23 17 27 27 31 44 55 67 68 60 65 77 70 62 51 45 59 53 50 52 43 34 19 26 20 17 17 21 21 20
21 24 25 25 23 28 31 23 18 15 21 19 22 25 24 25 29 32 47 57 58 61 66 68 64 60 54 52 57 49 48 47 43 34 33 22 15 18 11 17 21 22 23
Wind_Direction_850mb
241 247 246 249 255 254 247 259 268 263 263 272 244 246 254 260 257 256 247 249 248 223 232 241 249 246 229 213 205 196 204 209 207 207 205 206 221 212 205 197 190 179 177
240 251 249 248 250 257 257 270 258 244 257 269 248 237 244 242 249 246 248 234 220 216 234 245 241 244 223 212 205 197 203 201 206 209 206 213 222 208 207 192 181 180 170
239 252 245 239 246 253 254 258 257 256 257 264 242 240 240 235 252 236 245 232 228 227 238 246 247 231 219 210 205 201 198 208 207 205 210 218 204 198 183 179 177 168 167
247 258 257 248 244 255 264 262 264 268 262 247 239 229 236 237 238 242 242 233 226 232 242 240 236 214 223 218 204 202 199 202 207 212 209 207 198 188 181 180 177 163 179
254 262 265 257 252 255 262 266 272 267 259 248 235 232 237 240 247 239 235 228 228 236 224 237 226 216 215 215 207 202 199 202 203 201 203 196 193 188 186 179 165 172 167
255 259 271 264 266 263 265 266 270 260 252 242 230 232 237 240 244 232 227 234 223 226 226 239 228 216 205 210 208 205 198 203 200 196 197 193 192 191 191 174 167 160 157
250 257 252 261 267 269 275 272 262 251 238 225 228 231 243 240 227 217 212 207 203 216 226 234 227 214 205 203 208 204 198 196 195 193 190 193 192 187 181 165 166 164 161
244 257 261 270 270 272 275 264 255 240 231 223 218 239 256 236 222 211 208 206 215 219 217 234 235 221 209 202 201 201 196 195 196 193 193 191 191 183 173 167 165 170 152
249 260 273 273 272 272 267 258 242 235 225 221 231 215 193 223 213 217 217 214 216 229 221 226 229 229 219 204 197 197 196 196 197 195 191 192 192 178 162 160 166 164 156
252 264 285 282 277 272 256 234 226 224 222 226 229 225 207 162 185 204 218 224 228 233 227 225 218 222 210 202 199 196 196 197 196 190 186 189 180 171 160 164 163 160 153
276 284 283 273 267 252 246 228 231 228 235 240 234 231 205 212 230 211 205 210 209 205 206 212 216 211 204 196 199 197 196 190 194 194 181 181 166 160 163 159 153 153 169
276 271 254 255 252 252 244 249 245 240 238 235 221 208 209 223 238 219 240 207 201 184 190 198 203 194 198 196 193 192 195 190 190 177 172 165 167 167 159 156 153 159 195
270 270 231 232 270 250 235 239 238 224 219 205 210 205 212 225 235 232 224 196 178 171 169 188 200 184 173 162 171 184 195 194 185 175 167 167 164 154 156 162 158 157 187
267 213 192 194 196 187 174 178 175 169 196 198 212 206 226 219 226 222 196 179 166 160 140 149 163 154 166 165 163 169 170 172 177 172 168 157 152 160 165 161 156 168 174
155 157 161 145 154 132 112 112 118 140 205 209 213 210 201 196 213 204 184 188 178 159 146 148 145 162 161 159 149 139 167 188 183 167 166 162 156 162 158 150 166 162 163
140 124 151 154 137 124 118 113 137 152 170 165 177 183 186 191 189 187 208 190 199 190 148 154 143 156 158 163 166 179 168 162 158 158 153 153 155 158 152 164 156 155 164
118 117 145 154 158 158 145 159 165 158 158 157 157 170 154 147 169 203 211 175 182 190 169 150 150 154 159 166 159 168 167 158 168 157 155 157 167 156 160 158 158 163 176
141 115 124 132 115 128 157 153 146 173 167 190 202 213 202 209 146 143 162 171 174 181 168 154 151 153 164 168 163 165 154 140 145 149 153 159 153 159 165 164 166 186 197
152 147 132 103 118 94 137 143 137 141 137 115 125 139 143 146 152 155 157 186 186 184 177 159 148 154 167 174 154 146 144 141 146 145 150 151 158 167 170 174 187 196 203
163 163 151 144 114 116 150 158 135 134 137 145 109 138 138 145 168 167 132 177 189 178 171 159 153 156 155 153 153 145 145 144 143 150 152 162 169 177 176 183 194 204 216
154 167 172 173 178 191 192 184 137 131 141 159 154 133 152 167 205 210 224 163 179 174 170 162 157 149 152 152 145 148 144 146 148 157 162 163 166 165 178 193 204 216 230
166 189 174 191 211 190 205 187 135 137 145 143 144 149 149 125 138 139 149 166 179 177 167 162 154 142 151 154 151 155 153 154 146 166 165 165 172 184 196 207 215 222 222
189 191 200 205 173 163 141 133 136 139 154 140 131 141 138 133 129 130 144 169 164 169 171 167 154 159 159 159 160 161 165 166 165 166 172 172 180 198 207 213 218 217 216
168 174 180 170 155 155 133 139 134 128 136 137 133 121 132 134 137 142 153 153 156 160 167 168 168 164 162 161 165 155 160 164 162 161 174 174 181 197 211 217 216 222 236
161 152 159 144 147 126 124 128 128 137 138 138 139 143 135 137 141 150 156 151 148 153 161 160 158 158 162 160 157 156 158 160 162 166 173 200 190 195 220 221 218 228 243
169 162 158 151 146 133 131 130 126 130 142 144 156 155 150 138 155 155 162 157 158 163 164 158 151 153 158 158 160 162 160 164 162 167 188 201 199 206 224 226 221 230 247